Showing default

LEMUR 2 UNTITLED-SC, 63351

Orbit data source: Space-Track

LEMUR 2 UNTITLED-SC, 63351 is a payload satellite owned by OroraTech (US) in SSO that was launched on Wed, 26 Mar 2025 UTC via an ELECTRON launch vehicle from the Rocket Lab Launch Complex (RLLC). Payload-class satellites include a variety of spacecraft equipped with specific instruments for various scientific and technological missions. These include communications satellites like Starlink; space stations such as the ISS; scientific satellites like the Hubble; Earth observation satellites from companies like Planet Labs, Umbra, and HawkEye 360; GPS; miniature CubeSats for education and research; and military/defense satellites.

Loading next visibility...
Identifier
63351, 2025-061A
Orbit
SSO
Country
Flag of USUS
Related business
Manufacturer
Spire/Glasgow
Mission
Operational Commercial Imaging
Bus & Motor
CUBESAT 6U, Unknown motor
Mass
~15 kg wet, ~15 kg dry
Launch date (UTC)
2025-03-26 (1 year ago)
Launch vehicle
ELECTRON
Launch site
Rocket Lab Launch Complex (RLLC)
Object type
Payload
Rocket body
Debris
Shape & HBR
Box + 2 Pan, 0.4 m
Radar Cross Section
0.065 m², Medium (>0.1 m² and < 1m²)

Expand to show TLE details & history
Last TLE update: 7 hours ago

TLE from 7 hours ago
0 LEMUR 2 UNTITLED-SC
1 63351U 25061A   26132.84629918  .00002128  00000-0  12302-3 0  9997
2 63351  97.5618 108.4781 0019825  32.0310 328.2121 15.13218040 62247
Epoch: 2026-05-12T20:18Z
TLE epoch observation values (Epoch: 2026-05-12T20:18:40.249Z)
Latitude
-0.00005°
Longitude
-66.80442°
Altitude
517.84 km
Speed
7.611 km/s
True Right ascension
07h 13m 54s
True Declination
0° 00' 00"
Sunlit
Object was in daylight at epoch
Visualization orbit readout
Latitude
Unknown
Longitude
Unknown
Altitude
Unknown
Speed
Unknown
Apparent Right ascension
Unknown
Apparent Declination
Unknown
Sunlit
N/A
Visualization observer readout
Local Sidereal Time
11:53:36
Azimuth
Unknown
Elevation
Unknown
Doppler factor
Unknown
Orbital elements
Apogee altitude
537.058 km
Perigee altitude
509.693 km
Semi-major axis
6,901.512 km
Eccentricity
0.00198
Inclination
97.5618°
RAAN
108.4781°
Arg. of periapsis
32.031°
True anomaly
328.09218°
Mean anomaly
328.2121°
Eccentric anomaly
328.15216°
Mean motion
3.78553 °/min
Orbital period
95.1 mins
BSTAR
0.00012302
Loading maneuver chart data...
Computing Atmospheric mass density...
Loading historical data...
Loading historical data...
Loading historical data...
Loading historical data...
Loading historical data...
Loading historical data...
Loading historical data...

Documentation

Showing up to 5 results
|